CAPE
0 0 0 0 0 0 0 0 0 0 0 0 0 0 0 0 0 0 0 0 0 0 0 0 0 0 0 124 246 791 1096 1237
0 0 0 0 0 0 0 0 0 0 0 0 0 0 0 0 0 0 0 0 0 0 0 0 0 0 0 0 0 86 613 605
0 0 0 0 0 0 0 0 0 0 0 1 2 1 0 0 0 0 0 2 3 1 4 5 5 4 2 0 0 0 439 290
1 0 0 0 0 0 0 0 0 0 0 0 0 0 0 0 0 0 1 4 5 8 4 1 1 4 3 1 6 7 5 224
1 0 0 0 0 0 0 0 1 2 1 0 0 0 1 6 5 4 4 5 9 2 4 6 7 10 8 7 7 2 7 12
2 0 0 0 0 0 0 0 1 1 4 5 4 0 0 4 8 7 5 7 3 5 7 7 7 9 9 8 10 12 14 5
3 2 2 3 3 0 0 0 0 0 1 3 4 5 2 4 5 5 3 4 5 2 6 6 6 8 9 10 8 7 13 19
7 7 6 7 6 5 7 2 2 2 4 1 4 4 5 6 6 7 9 5 6 7 5 5 5 6 8 10 11 9 10 13
4 3 2 3 3 5 3 3 5 3 7 5 4 9 8 5 5 6 7 8 7 5 5 4 4 4 9 6 12 13 13 17
5 4 3 3 4 4 5 5 4 4 6 6 4 4 7 9 7 8 9 8 6 6 5 4 4 5 5 7 8 10 11 8
3 3 5 6 5 5 4 6 7 6 8 7 9 9 8 9 8 7 8 6 6 5 7 7 7 5 5 5 6 6 8 10
1 1 2 6 4 4 7 8 9 7 7 9 6 5 7 8 8 8 8 7 7 7 9 11 12 10 9 8 7 8 9 11
0 0 1 2 2 6 7 7 8 8 9 8 9 8 9 6 7 7 7 7 5 4 7 14 16 16 16 10 11 10 9 9
0 1 2 3 7 7 7 7 7 8 6 6 6 7 6 6 4 6 5 6 4 2 5 14 20 18 16 12 7 6 6 7
0 2 4 4 5 7 6 6 5 3 2 1 1 2 3 4 4 3 4 6 6 2 5 10 18 16 16 15 12 9 7 6
0 2 5 6 1 1 3 4 2 1 0 0 0 0 0 0 1 2 3 5 5 5 4 7 13 14 16 17 10 10 8 6
2 2 1 4 3 1 4 4 1 0 0 0 0 0 0 0 1 1 1 3 4 4 5 5 12 10 9 8 9 8 9 11
2 2 6 6 8 5 5 2 0 0 0 0 0 1 1 1 1 1 2 5 7 9 8 9 12 16 6 4 5 11 10 15
5 5 4 8 7 11 10 1 0 0 1 1 0 1 1 1 1 2 5 6 8 11 16 8 13 21 4 1 3 15 21 16
CIN
0 0 0 0 0 0 0 0 0 0 0 0 0 0 0 0 0 0 0 0 0 0 0 0 0 0 0 -86 -53 -4 -0 0
0 0 0 0 0 0 0 0 0 0 0 0 0 0 0 0 0 0 0 0 0 0 0 0 0 0 0 0 0 -95 -10 -5
0 0 0 0 0 0 0 0 0 0 0 0 0 0 0 0 0 0 0 0 0 0 0 0 0 0 0 0 0 0 -5 -4
0 0 0 0 0 0 0 0 0 0 0 0 0 0 0 0 0 0 0 0 0 0 0 0 0 0 0 0 0 0 0 -12
0 0 0 0 0 0 0 0 0 0 0 0 0 0 0 0 0 0 0 0 0 0 0 0 0 0 0 0 0 0 0 0
0 0 0 0 0 0 0 0 -0 0 0 0 0 0 0 0 0 0 0 0 0 0 0 0 0 0 0 0 0 0 0 0
0 0 0 0 0 0 0 0 0 0 0 0 0 0 0 0 0 0 0 0 0 0 0 0 0 0 0 0 0 0 0 0
0 0 0 0 0 0 0 0 0 0 0 0 0 0 0 0 0 0 0 0 0 0 0 0 0 0 0 0 0 0 0 0
0 0 0 0 0 0 0 0 0 0 0 0 0 0 0 0 0 0 0 0 0 0 0 0 0 0 0 0 0 0 0 0
0 0 0 0 0 0 0 0 0 0 0 0 0 0 0 0 0 0 0 0 0 0 0 0 0 0 0 0 0 0 0 0
0 0 0 0 0 0 0 0 0 0 0 0 0 0 0 0 0 0 0 0 0 0 0 0 0 0 0 0 0 0 0 0
0 0 0 0 0 0 0 0 0 0 0 0 0 0 0 0 0 0 0 0 0 0 0 0 0 0 0 0 0 0 0 0
0 0 0 0 0 0 0 0 0 0 0 0 0 0 0 0 0 0 0 0 0 0 0 0 0 0 0 0 0 0 0 0
0 0 0 0 0 0 0 0 0 0 0 0 0 0 0 0 0 0 0 0 0 0 0 0 0 0 0 0 0 0 0 0
0 0 0 0 0 0 0 0 0 0 0 0 0 0 0 0 0 0 0 0 0 0 0 0 0 0 0 0 0 0 0 0
0 0 0 0 0 0 0 0 0 0 0 0 0 0 0 0 0 0 0 0 0 0 0 0 0 0 0 0 0 0 0 0
0 0 0 0 0 0 0 0 0 0 0 0 0 0 0 0 0 0 0 0 0 0 0 0 0 0 0 0 0 0 0 0
0 0 0 0 0 0 0 0 0 0 0 0 0 0 0 0 0 0 0 0 0 0 0 0 0 0 0 0 0 0 0 0
0 0 0 0 0 0 0 0 0 0 0 0 0 0 0 0 0 0 0 0 0 0 0 0 0 0 0 0 0 0 0 0
Wind_Speed
16 18 17 17 17 17 17 14 17 15 10 6 4 6 7 7 6 7 8 6 6 4 1 2 3 4 5 5 6 6 9 9
16 17 17 18 18 19 19 18 16 13 11 9 6 7 6 7 8 11 10 8 8 6 4 5 4 4 5 6 6 8 6 5
16 18 18 17 17 18 18 17 16 12 9 9 5 7 5 6 8 9 11 11 9 7 6 5 6 5 7 7 6 4 5 7
12 14 16 15 16 16 15 15 15 13 13 7 8 6 9 8 10 9 11 12 11 9 7 6 6 4 5 7 8 9 6 4
9 10 12 13 12 12 14 13 14 12 13 11 13 8 9 10 10 9 9 11 11 10 10 10 9 7 7 6 6 7 7 9
5 6 6 6 8 10 10 12 12 12 12 13 9 12 10 10 9 11 10 9 11 11 12 11 10 8 9 9 9 9 6 8
7 8 10 11 12 12 11 11 12 13 14 15 15 12 10 9 12 10 9 10 9 11 13 10 10 10 10 9 10 10 9 8
7 10 11 12 14 15 13 12 12 12 14 14 14 12 11 9 10 10 13 10 9 11 13 12 9 11 12 11 11 11 10 9
5 6 7 9 11 12 13 13 14 14 12 11 11 10 7 8 10 10 9 9 9 13 12 12 13 13 12 12 9 8 9 9
6 7 8 9 11 12 12 12 12 13 14 11 11 11 12 11 12 11 9 10 10 12 13 13 13 13 13 13 9 12 9 10
4 6 7 8 9 10 11 12 11 11 11 10 10 10 11 12 11 12 12 12 13 13 14 14 14 13 13 12 10 11 12 9
4 5 7 7 9 10 10 11 11 11 11 11 11 11 12 11 12 12 13 14 15 15 14 13 14 14 14 13 12 12 13 12
5 6 7 8 9 9 9 10 10 11 10 9 10 10 10 11 12 13 14 15 15 15 14 14 15 15 14 14 13 13 13 14
5 5 6 7 7 8 9 9 9 9 10 9 10 11 11 12 12 13 13 13 14 15 15 15 15 16 15 14 13 13 13 13
5 5 6 6 7 8 9 9 9 9 9 10 10 11 12 12 12 12 13 13 14 15 16 15 15 17 16 16 15 15 13 14
5 5 5 6 7 8 8 8 9 8 9 10 10 11 10 11 12 13 13 13 14 16 16 16 15 16 14 16 15 16 16 16
7 6 5 6 7 7 8 8 8 8 10 11 12 12 12 13 13 13 14 14 15 16 17 17 16 13 28 26 19 14 17 17
9 7 5 6 6 6 8 8 8 10 11 12 12 12 13 13 13 14 14 15 13 15 16 16 17 18 31 28 24 14 14 16
9 7 6 5 5 6 5 8 9 10 11 11 12 12 12 12 12 13 13 12 13 13 14 15 15 16 30 29 24 14 13 17
Wind_Direction
37 35 32 32 30 30 28 24 16 11 8 358 22 41 35 25 18 26 24 16 10 358 358 350 324 296 278 274 287 256 233 230
40 35 32 29 30 29 26 23 20 19 17 6 3 18 10 20 14 9 8 7 6 5 352 340 336 299 290 285 277 276 245 230
33 29 26 27 26 25 25 24 18 22 27 21 5 334 1 359 355 355 2 355 356 354 357 349 335 314 297 283 269 272 248 201
35 31 29 25 25 24 20 20 17 16 11 29 31 19 11 353 348 351 353 351 348 356 353 346 329 301 293 296 290 263 248 232
42 33 35 30 25 18 32 17 16 15 15 22 37 41 19 345 333 337 340 348 343 354 352 353 341 324 304 294 286 283 273 250
72 68 61 47 42 38 23 29 19 19 11 34 22 33 27 330 328 337 351 345 343 353 350 345 342 328 318 312 303 282 266 265
24 18 14 18 17 14 27 33 20 11 22 22 27 11 357 339 348 342 347 350 341 352 340 346 338 325 320 315 304 294 288 268
19 16 15 14 16 16 8 13 21 21 19 25 11 5 356 355 347 356 350 339 341 341 341 340 337 325 320 311 304 296 283 275
23 20 23 19 14 17 13 12 8 10 16 14 23 2 3 1 8 358 345 337 334 341 339 341 337 331 328 324 310 305 307 288
16 14 20 11 13 16 16 7 12 8 4 3 12 10 3 1 4 353 345 338 343 348 349 346 342 339 334 330 318 313 308 300
8 14 15 19 16 22 17 11 12 11 6 8 6 11 15 15 12 6 358 356 357 357 355 354 347 345 339 332 322 313 309 304
33 16 22 24 22 25 19 13 11 7 13 10 13 10 22 16 18 10 6 5 3 4 359 357 355 351 346 338 334 333 324 317
68 42 20 19 21 25 22 17 12 6 12 20 16 19 23 29 23 18 17 16 12 7 4 359 5 357 353 353 348 345 348 352
71 61 40 28 31 31 28 22 17 14 21 21 23 20 26 29 30 23 26 23 18 12 10 7 6 3 0 357 1 3 2 8
101 72 60 48 41 42 42 33 23 21 26 28 25 27 22 29 26 27 29 24 21 16 17 13 7 8 5 5 9 11 12 14
118 100 76 66 57 51 47 42 33 29 36 34 32 31 26 32 28 28 28 27 24 24 20 18 11 16 10 9 11 17 20 17
128 112 100 77 64 59 52 43 35 38 42 38 32 32 31 33 28 29 30 28 28 29 27 21 17 18 15 15 14 18 21 20
135 126 110 79 75 76 61 49 40 42 41 39 38 30 31 29 28 29 29 28 23 28 26 22 20 21 17 17 14 17 20 20
135 127 109 85 83 62 80 49 51 50 49 44 38 33 32 30 29 28 26 26 30 25 21 24 21 15 20 17 13 13 17 20